星链-31739 (STARLINK-31739 )

导读 | 豆包AI

STARLINK-31739是美国太空探索技术公司 SpaceX 星链星座中的一颗卫星,于2024年5月14日发射升空,星链项目旨在为全球提供高速互联网接入服务,该卫星加入星座后,进一步扩展了星链网络覆盖范围,助力提升全球偏远地区网络连通能力。

Basic Information
目录编号:
59766
目录名称:
STARLINK-31739
国际标识:
2024-091P
轨道中心:
EARTH
卫星名称:
星链-31739
卫星全名:
星链-31739 (STARLINK-31739 )
卫星状态:
在轨 (已飞行717 天)
发射日期:
2024-05-14 UTC
国别 :
美国 (US)
星等 :
--
Orbit Information
数据来源 国际轨道数据 AOE轨道数据
星历时间 2026-04-30T16:09:16+0800
18小时前
查看轨道信息
2026-04-28T08:00:00+0800
3天前
查看轨道信息
半长轴 6853.377km 6853.346km
偏心率 0.0001352 0.0001299
轨道倾角 53.160° 53.160°
近地点辐角 72.336° 62.204°
升交点赤经 144.047° 154.917°
平近点角 287.779° 1.670°
近地点 474.313km 474.318km
远地点 476.167km 476.1km
周期 94.106分钟 94.105分钟
每日圈数 15.301919 15.302021
Detailed Information
固有亮度:
5
最大亮度:
1.5
卫星平台:
Starlink v2.0 mini
覆盖范围:
全球
运营商:
太空探索技术公司
运营商所在国:
美国
制造商(研发单位):
太空探索技术公司
制造商所在国:
美国
使用方式:
暂无
Satellite Introduction
星链(Starlink)计划是由太空探索技术公司(SpaceX)提出的一个巨型低轨卫星互联网星座项目,计划在2019年至2024年间在太空搭建由约1.2万颗卫星组成的“星链”网络,其中1584颗将部署在地球上空550千米处的近地轨道,并从2020年开始工作。该卫星仍在工作。
2D Orbit Map
3D Orbit Map
Orbit Altitude Analysis Chart
Orbit Inclination Analysis Chart
Orbit Comprehensive Analysis Chart
View Comprehensive Chart